www.pogodaiklimat.ru

Погода и климат >> Архив погоды >> Молдова >> Кишинев


АРХИВ ПОГОДЫ в Кишиневе

Время (UTC), дата Ветер
(напр.,м/с)
 
Видим.   Явления Облачность Т
(С)
Тd
(С)
f
(%)
Тe
(С)
Тes
(С)
Комфортность P
(гПа)
Po
(гПа)
Тmin
(С)
Tmax
(С)
R
(мм)
R24
(мм)
S
(см)
21 4.12 В 3 50 м туман ?/? +3.2 +2.8 97 -1 -1 по сезону 1016.8 995.8
00 5.12 В 3 50 м туман ?/? +1.7 +1.4 98 -3 -3 по сезону 1017.2 996.0
03 5.12 В 2 50 м туман ?/? +0.6 +0.3 98 -3 -3 по сезону 1016.9 995.7
06 5.12 штиль 0 50 м туман ?/? +0.2 -0.1 98 -1 -1 по сезону 1018.5 997.2 +0.1
09 5.12 СЗ 2 200 м туман {дождь} ?/? +1.2 +0.9 98 -2 -2 по сезону 1019.8 998.5
12 5.12 С 8
{13}
4000 м слабый ливневой дождь со снегом 10/10 600 м
[Cb calv]
+1.2 +0.9 98 -6 -6 холодно 1018.6 997.4
15 5.12 С 6 10 км слабый ливневой дождь со снегом 10/10 600 м
[Cb calv]
+1.1 +0.8 98 -5 -5 прохладно 1020.5 999.2
18 5.12 СЗ 7 10 км в посл. час ливневой снег 10/10 600 м
[Cb calv]
+1.1 -0.8 87 -6 -6 прохладно 1022.0 1000.7 +1.4 2
21 5.12 СЗ 7
{12}
10 км 10/8 600 м
[Sc Ac trans]
+0.8 -3.3 74 -6 -6 прохладно 1023.2 1001.8
00 6.12 СЗ 6 20 км 10/8 600 м
[Sc Ac trans]
+0.6 -2.8 78 -6 -6 прохладно 1023.8 1002.4
03 6.12 СЗ 4 20 км 4/0 600 м
[As trans]
-0.6 -3.5 81 -6 -6 по сезону 1024.0 1002.5
06 6.12 СЗ 4 20 км 9/3 600 м
[Sc Ac trans]
+0.2 -3.0 79 -5 -5 по сезону 1024.2 1002.8 -1.0
09 6.12 СЗ 6 20 км 10/8 600 м
[Cu med, cong Ac trans]
+1.2 -3.7 70 -5 -5 прохладно 1024.6 1003.2
12 6.12 СЗ 7 20 км 9/8 600 м
[Cb calv Ac trans Ci fib]
+1.4 -3.9 68 -5 -5 прохладно 1023.8 1002.5
15 6.12 СЗ 5 20 км 4/1 600 м
[Sc Ac trans]
-0.5 -5.1 71 -6 -6 прохладно 1024.2 1002.7
18 6.12 СЗ 4 20 км 3/0
[Ci fib]
-1.3 -6.1 70 -7 -7 прохладно 1024.7 1003.1 +2.4
21 6.12 С 5 20 км ясно -1.8 -5.8 74 -8 -8 холодно 1024.5 1002.9
00 7.12 СЗ 1 20 км ясно -3.9 -6.7 81 -6 -6 прохладно 1024.3 1002.5
03 7.12 С 3 20 км 5/0
[Ac trans Ci fib]
-3.9 -6.7 81 -9 -9 холодно 1023.5 1001.7
06 7.12 СЗ 1 20 км 3/0
[Ac lent]
-4.7 -6.7 86 -7 -7 прохладно 1023.3 1001.5 -5.1
09 7.12 ЮЗ 2 20 км 3/0
[Ac lent]
-1.5 -5.2 76 -5 -3 по сезону 1022.2 1000.7
12 7.12 ЮЗ 3 20 км 9/0
[Ac As Ci fib]
+0.8 -5.9 61 -3 -3 по сезону 1019.9 998.6
15 7.12 Ю 2 20 км 10/3 600 м
[Sc Ac trans Ci fib]
-1.2 -5.6 72 -5 -5 прохладно 1019.4 997.9
18 7.12 ЮВ 2 20 км 9/0
[Ac trans Ci fib]
-1.2 -4.9 76 -5 -5 по сезону 1018.0 996.6 +1.7
21 7.12 Ю 3 20 км 9/0
[Ac trans Ci fib]
-2.2 -4.5 84 -7 -7 прохладно 1017.0 995.5
00 8.12 Ю 3 4000 м дымка 9/0
[Ac trans Ci fib]
-2.0 -2.8 94 -7 -7 прохладно 1015.1 993.7
03 8.12 Ю 4 20 км дымка 10/0
[Ac und]
-2.1 -2.7 96 -8 -8 прохладно 1013.3 991.9
06 8.12 Ю 3 4000 м дымка {туман} 10/5 600 м
[Sc Ac trans]
-1.8 -2.6 94 -7 -7 прохладно 1013.1 991.7 -2.7
09 8.12 Ю 3 4000 м дымка 10/10 600 м
[Sc]
-0.2 -2.3 86 -5 -5 по сезону 1012.5 991.3
12 8.12 Ю 3 4000 м дымка {дождь} 10/10 600 м
[Sc]
+1.2 -2.6 76 -3 -3 по сезону 1011.1 990.0
15 8.12 Ю 3 4000 м дымка 10/10 600 м
[Sc]
+1.0 -2.4 78 -3 -3 по сезону 1010.3 989.2
18 8.12 ЮЗ 2 4000 м дымка 10/8 600 м
[Sc Ac trans]
+0.8 -2.6 78 -3 -3 по сезону 1010.6 989.5 +1.5 0.0
21 8.12 штиль 0 10 км слабый дождь 10/10 600 м
[Sc]
+1.2 -2.6 76 0 0 по сезону 1010.5 989.4
00 9.12 штиль 0 4000 м слабый дождь 10/10 600 м
[Sc]
+0.4 -1.2 89 -1 -1 по сезону 1009.7 988.6
03 9.12 штиль 0 500 м слабый переохл. дождь (гололёд) {туман} туман ?/? -0.1 -0.7 96 -1 -1 по сезону 1008.8 987.7
06 9.12 З 1 200 м туман {снег, дождь} ?/? -0.1 -0.5 97 -2 -2 по сезону 1008.8 987.7 -0.3 1
09 9.12 З 2 4000 м дымка {туман} 10/10 600 м
[Sc]
+2.2 +1.6 96 -1 -1 по сезону 1008.2 987.3
12 9.12 Ю 2 10 км {туман} 8/3 600 м
[Cu hum Ci fib]
+5.0 +2.4 83 +2 +3 по сезону 1006.9 986.2
15 9.12 Ю 3 200 м туман ?/? +1.3 +0.7 96 -3 -3 по сезону 1007.0 986.0
18 9.12 ЮЗ 2 50 м туман ?/? +1.2 +0.8 97 -2 -2 по сезону 1006.7 985.7 +5.3
21 9.12 ЮЗ 2 50 м туман ?/? +0.6 +0.3 98 -3 -3 по сезону 1006.1 985.1
00 10.12 ЮЗ 3 200 м туман ?/? +0.1 -0.2 98 -5 -5 по сезону 1006.1 985.0
03 10.12 ЮЗ 2 200 м туман ?/? -0.1 -0.4 98 -4 -4 по сезону 1005.1 984.0
06 10.12 ЮЗ 2 50 м туман ?/? -0.8 -1.1 98 -5 -5 по сезону 1005.6 984.5 -1.0
09 10.12 ЮЗ 2 50 м переохл. туман [диам. гололёда 1 мм] ?/? -0.6 -0.9 98 -5 -5 по сезону 1006.1 985.0
12 10.12 штиль 0 200 м туман ?/? -0.2 -0.5 98 -2 -2 по сезону 1006.1 985.0
15 10.12 штиль 0 500 м туман ?/? -0.1 -0.4 98 -2 -2 по сезону 1006.9 985.8
18 10.12 СЗ 1 50 м туман ?/? -0.5 -0.8 98 -3 -3 по сезону 1007.7 986.6 -0.1
21 10.12 СЗ 2 200 м туман [диам. гололёда 0 мм] ?/? -1.1 -1.4 98 -5 -5 по сезону 1008.9 987.7
00 11.12 С 1 200 м туман [диам. гололёда 0 мм] ?/? -1.0 -1.3 98 -3 -3 по сезону 1008.9 987.7
03 11.12 СЗ 1 1000 м в посл. час туман [диам. гололёда 1 мм] 10/6 600 м
[Sc Ac trans]
-0.5 -0.8 98 -3 -3 по сезону 1009.2 988.0
06 11.12 С 5 10 км {туман} [диам. гололёда 0 мм] 9/3 600 м
[Sc Ac trans]
+0.6 +0.3 98 -6 -6 по сезону 1009.8 988.7 -1.3
09 11.12 С 4 10 км 9/4 600 м
[Sc Ac trans]
+1.8 +0.8 93 -3 -3 по сезону 1010.5 989.5
12 11.12 С 4 10 км 10/4 600 м
[Cu hum Ac trans]
+3.4 -0.2 77 -1 -1 по сезону 1011.2 990.3
15 11.12 СЗ 5 10 км 10/8 600 м
[Sc Ac trans]
+0.4 -1.2 89 -6 -6 прохладно 1013.1 991.9
18 11.12 С 3 10 км 10/10 600 м
[Sc]
+0.2 -2.5 82 -4 -4 по сезону 1013.4 992.2 +3.6

 

Местоположение метеостанции Кишинев (Молдова): широта 47.02 долгота 28.98 высота над уровнем моря 173 м.

В архиве по умолчанию представлена погода в Кишиневе за последнюю неделю. Архивные данные за месяц целиком и за предыдущие месяцы, начиная с января 2011 года, Вы можете получить, выбрав интересующий диапазон дат из раскрывающегося списка и нажав кнопку "Ввод!".


*Определитесь, кто Вы:
робот инопланетянин человек

Внимание! Время в таблицах - всемирное. Для получения местного времени необходимо прибавить поправку, которая в Кишиневе равна 2 ч.

Смотрите также архив погоды в соседних городах и на ближайших метеорологических станциях:

Погода в Балцате (Молдова) (5 км)
Погода в Дубоссарах (Молдова) (29 км)
Погода в Кодрах (Молдова) (46 км)
Погода в Тирасполе (Молдова) (49 км)
Погода в Бравичах (Молдова) (57 км)
Погода в Штефан Водэ (Молдова) (67 км)
Погода в Корнестах (Молдова) (76 км)
Погода в Затишье (Одесская область, Украина) (76 км)
Погода в Леове (Молдова) (80 км)
Погода в Заставе (Одесская область, Украина) (81 км)

Пояснения к столбцам:

Ветер - указаны скорость ветра в м/с - средняя за 10 мин, порывы в срок и между сроками (в фигурных скобках) и направление, откуда дует ветер: С - северный, СВ - северо-восточный, В - восточный, ЮВ - юго-восточный, Ю - южный, ЮЗ - юго-западный, З - западный, СЗ - северо-западный.
Видимость - горизонтальная дальность видимости в метрах или километрах. При видимости от 1 до 10 км при отсутствии осадков обычно наблюдается дымка, при ухудшении видимости до 1 км и менее - туман. В сухую погоду видимость может ухудшаться дымом, пылью или мглою.
Явления - указаны атмосферные явления, наблюдавшиеся в срок или в последний час перед сроком; фигурными скобками обозначены явления, наблюдавшиеся между сроками (за 1-3 часа до срока); квадратными скобками обозначены град или гололедные отложения с указанием их диаметра в мм.
Облачность - указаны через наклонную черту общая и нижняя облачность в баллах и высота нижней границы облаков в метрах; квадратными скобками обозначены формы облаков: Ci - перистые, Cs - перисто-слоистые, Cc - перисто-кучевые, Ac - высококучевые, As - высокослоистые, Sc - слоисто-кучевые, Ns - слоисто-дождевые, Cu - кучевые, Cb - кучево-дождевые. Подробнее классификацию облаков см. в Атласе облаков (PDF).
T - Температура воздуха - температура, измеренная на высоте 2 м над землей.
Td - Температура точки росы - температура, при понижении до которой содержащийся в воздухе водяной пар достигнет насыщения.
f - Относительная влажность воздуха - влажноcть воздуха, измеренная на высоте 2 м над землей.
Te - Эффективная температура - температура, которую ощущает одетый по сезону человек в тени. Характеристика душности погоды. При расчете учитывается влияние влажности воздуха и скорости ветра на теплоощущения человека.
Tes - Эффективная температура на солнце - температура, которую ощущает человек, с поправкой на солнечный нагрев. Характеристика знойности погоды. Зависит от высоты солнца над горизонтом, облачности и скорости ветра. Ночью, в пасмурную погоду, а также при ветре 12 м/с и более поправка равна нулю.
P - Атмосферное давление - приведенное к уровню моря атмосферное давление.
Po - Атмосферное давление - измеренное на уровне метеостанции атмосферное давление.
Tmin - Минимальная температура - минимум температуры воздуха на высоте 2 м над землей.
Tmax - Максимальная температура - максимум температуры воздуха на высоте 2 м над землей.
R - Количество осадков - Количество выпавших осадков за период времени, мм. При наведении курсора мыши на число - период времени, за который выпало указанное количество осадков.
R24 - Количество осадков - Количество выпавших осадков за 24 часа, мм.
S - Снежный покров - Высота снежного покрова, см. При наведении курсора мыши на число - состояние снежного покрова и степень покрытия местности в баллах.